Theta_e
356 357 357 357 357 357 356 356 357 358 357 355 355 354 353 352 351 350 351 350 349 349 352 348 349 353 353 353 357 356 357 358 360 360 361 361 362 365 368 368 367 366 366 365 364 364 363 360 359 359 357 357 356 356 357 359 358 356 355 356 357 357 358 358 359 361 361 361 361 361 361 361 360 360 360 360 360 360 360 360 360 359 359 359 358
355 357 356 356 356 356 356 355 355 356 356 355 356 354 353 351 350 351 349 349 350 351 354 347 346 350 351 353 357 357 358 358 359 360 361 362 363 365 369 368 368 367 366 365 365 364 363 362 360 360 358 357 357 357 356 359 360 360 360 359 358 358 357 357 358 361 361 361 361 360 361 361 361 361 360 360 359 359 359 360 360 359 359 358 358
356 356 356 356 356 354 354 355 354 355 356 355 356 355 353 351 351 350 350 351 351 352 352 348 348 347 353 352 356 358 357 358 359 360 361 362 363 364 366 369 368 367 367 366 365 365 364 363 362 361 360 359 358 357 358 358 360 360 360 361 358 358 357 359 359 360 361 361 361 361 361 361 361 360 361 359 360 359 359 359 359 358 359 358 358
356 356 356 355 355 354 354 354 354 355 357 355 355 354 354 352 351 351 352 353 353 351 351 347 345 344 349 352 355 358 358 357 358 359 360 362 362 364 365 367 369 368 368 367 366 365 364 363 363 362 362 361 359 359 358 358 361 361 361 361 361 359 358 359 360 361 361 361 361 361 361 361 361 361 360 360 360 360 359 360 359 359 359 358 358
356 357 359 357 355 354 354 356 356 356 355 354 354 354 351 350 351 354 353 354 349 350 349 349 346 345 346 348 354 356 359 358 358 358 358 360 362 363 364 366 368 369 369 368 367 366 365 365 364 363 363 362 361 360 359 359 359 361 360 361 361 361 360 360 361 360 361 361 360 361 361 360 360 360 360 360 360 359 359 359 359 358 358 358 358
357 357 358 357 357 356 355 355 355 355 355 355 353 352 351 352 351 353 354 352 348 349 349 348 346 345 346 347 353 356 358 358 359 358 358 358 361 362 364 365 367 368 368 369 369 367 366 366 365 364 364 363 362 361 360 360 359 359 360 360 361 361 361 361 360 360 360 361 361 360 361 361 360 361 361 360 360 359 359 359 358 358 358 358 358
357 357 357 357 356 356 356 355 356 356 355 354 353 353 353 351 353 351 350 350 349 352 350 347 345 345 345 348 348 352 356 357 359 359 359 359 361 360 362 364 365 367 367 368 370 368 367 367 366 366 365 364 363 362 361 360 360 360 358 359 360 361 360 361 361 360 360 360 360 360 360 360 360 360 360 360 360 360 359 359 359 358 358 358 357
357 358 357 357 356 356 356 356 356 356 355 354 355 353 352 351 352 351 349 349 351 349 350 348 347 345 346 348 348 354 354 356 356 359 360 361 360 360 361 362 364 366 368 367 367 368 369 368 367 367 366 365 364 363 363 362 362 361 361 360 360 361 361 360 361 361 360 360 361 361 360 360 360 360 360 360 360 360 359 359 358 358 358 357 357
358 359 358 357 357 356 356 356 356 355 353 352 351 353 351 350 353 355 352 350 348 347 349 350 347 347 346 345 344 352 352 355 354 357 359 359 360 360 360 361 363 367 368 367 366 367 368 369 368 367 367 366 366 365 364 363 362 362 362 361 361 360 361 361 360 360 360 360 360 360 360 359 360 360 360 359 359 359 359 359 359 358 358 357 357
358 359 358 358 358 357 357 357 356 354 353 353 353 353 351 351 351 352 353 351 349 349 348 349 346 345 347 345 346 347 350 353 355 359 358 358 359 360 361 361 361 362 364 366 365 366 366 367 369 369 368 367 367 366 365 364 363 362 362 362 361 361 360 360 360 360 360 360 360 360 360 359 359 359 358 359 358 358 358 358 358 357 357 357 357
358 359 358 359 359 357 357 357 357 355 354 353 353 353 354 353 351 351 354 353 352 351 350 349 346 345 343 344 342 345 349 350 356 357 357 356 358 361 361 362 360 361 362 363 364 365 365 366 366 368 368 368 367 367 366 366 365 364 364 363 363 362 362 361 359 359 360 360 359 359 359 359 358 358 358 358 359 359 358 358 358 357 358 357 357
359 359 359 359 358 357 357 356 356 355 353 352 352 350 349 349 350 351 354 354 357 354 351 347 346 344 345 341 339 342 344 349 352 353 356 355 355 360 362 364 363 363 362 362 363 363 364 364 366 366 366 367 369 368 367 367 366 366 365 364 363 363 362 362 361 360 359 359 360 360 359 359 359 359 358 358 358 358 359 359 359 358 358 357 357
360 359 358 359 360 358 357 356 356 356 354 353 352 352 351 350 355 359 356 351 351 352 350 346 342 344 341 340 341 341 347 351 348 350 351 354 356 356 357 361 363 363 365 365 364 364 363 363 363 364 365 367 367 369 369 368 367 367 366 366 365 364 364 363 363 362 361 360 359 360 359 359 359 359 358 358 358 357 357 358 358 358 359 357 356
359 359 359 357 357 358 357 356 356 356 356 356 354 357 357 355 355 352 354 350 351 351 351 347 342 337 339 337 341 337 347 350 347 348 349 351 352 353 355 356 357 358 361 364 365 366 365 365 364 363 364 366 367 367 368 368 368 368 367 367 366 366 365 365 364 363 363 362 361 361 360 359 359 359 358 359 358 358 357 357 357 357 357 357 356
355 359 358 358 357 357 357 357 356 357 356 355 355 355 355 354 353 350 350 351 351 353 352 345 343 341 338 337 335 330 341 340 346 345 347 347 348 350 352 353 353 355 358 360 361 364 366 366 365 364 364 364 365 366 366 366 367 368 368 368 367 366 366 366 366 365 364 363 363 363 361 360 359 359 359 359 358 359 359 358 357 357 357 357 356
354 355 359 358 357 356 356 357 356 357 356 354 353 352 353 352 352 353 352 348 348 349 353 346 347 349 341 332 333 330 327 336 336 339 342 344 346 346 350 350 351 353 356 356 357 360 362 365 366 367 366 365 365 365 364 364 365 367 368 368 368 367 367 367 367 367 366 365 364 363 363 362 360 360 359 359 359 359 359 359 358 357 357 356 356
353 354 357 357 357 357 356 357 356 356 356 354 353 352 353 353 352 352 352 350 347 347 350 348 343 347 344 337 337 330 329 331 331 335 336 339 344 344 347 349 349 350 353 353 355 358 357 359 363 365 366 366 365 365 364 364 364 366 367 368 369 368 367 367 367 367 367 367 365 364 364 363 363 362 361 360 359 360 360 359 359 358 357 356 356
353 354 355 358 356 357 357 356 356 357 356 355 354 353 353 352 353 353 352 352 351 348 346 351 352 353 345 346 345 341 337 334 329 334 337 344 341 340 343 344 346 348 351 351 355 353 356 357 360 361 363 364 365 364 364 364 364 363 365 366 368 369 368 368 368 368 368 367 367 366 365 364 364 363 362 361 361 360 360 360 359 359 358 357 357
353 353 354 356 358 357 357 356 356 356 358 356 354 353 353 353 355 354 353 354 351 348 347 347 349 349 348 344 339 340 337 334 335 330 332 337 336 336 338 340 341 343 345 347 353 353 353 354 355 357 359 361 363 364 364 364 363 364 364 364 365 367 369 370 369 369 369 368 367 367 366 365 365 364 364 363 362 361 361 360 360 360 359 358 357
352 353 354 355 358 358 357 357 356 356 357 356 354 354 354 355 357 357 355 355 352 349 348 347 345 348 350 343 343 342 338 335 336 334 334 329 332 336 336 337 337 340 344 345 346 350 349 350 350 353 358 359 362 363 364 364 365 365 365 366 366 367 368 370 370 371 370 369 367 367 366 366 365 365 364 364 363 362 361 359 358 360 360 359 358
354 353 354 355 360 358 358 357 356 356 359 357 356 355 354 354 354 355 355 355 352 351 350 349 346 346 346 348 343 343 341 338 336 333 334 329 330 330 334 337 337 340 341 342 345 347 350 352 350 351 354 358 360 362 363 365 365 366 365 366 366 367 368 368 370 371 371 371 369 368 367 366 365 365 363 361 360 359 359 359 357 356 357 359 359
354 355 355 355 357 360 358 356 356 356 359 357 356 356 355 355 355 354 355 354 355 355 352 351 348 348 346 348 344 344 343 339 336 335 335 334 334 333 333 332 335 341 340 344 346 348 348 349 353 351 353 356 359 362 363 364 366 365 365 365 367 368 368 369 369 370 371 371 371 370 368 367 366 362 359 357 357 357 356 356 356 356 356 357 358
353 355 355 355 356 359 358 357 357 359 360 357 356 355 355 355 354 355 356 355 353 353 354 355 353 350 348 346 345 343 344 340 342 339 337 336 333 333 334 335 333 334 344 344 351 349 350 353 353 353 357 358 358 359 361 362 361 361 363 366 368 368 368 369 370 371 371 371 371 370 367 366 362 361 358 355 355 356 354 352 353 352 353 355 356
352 353 354 354 356 356 359 358 358 357 357 358 357 356 356 355 355 355 355 355 355 356 353 351 352 352 351 347 346 345 344 343 341 342 338 338 335 336 335 337 340 337 338 347 349 350 351 351 352 352 355 356 357 360 360 360 361 360 363 364 364 364 365 366 368 369 370 371 372 370 368 365 361 359 356 355 352 354 354 353 352 353 356 355 354
350 351 353 354 355 355 356 357 357 357 357 357 357 358 356 355 355 354 355 355 355 355 353 352 352 350 350 349 348 346 345 344 342 341 339 338 336 336 340 336 340 340 345 344 348 350 352 352 350 353 354 355 356 357 356 356 357 359 362 363 358 357 358 359 360 362 363 364 365 367 367 367 366 364 362 359 358 355 354 353 354 354 355 354 355
349 350 353 354 354 355 356 356 358 358 358 357 357 357 357 355 355 355 354 355 355 354 354 353 353 352 352 349 348 347 347 347 346 341 338 338 339 340 343 341 340 340 343 347 348 345 353 353 354 355 354 352 353 355 356 358 355 358 360 358 355 355 355 355 356 357 358 359 359 359 359 359 359 359 360 361 361 359 356 354 353 353 353 353 354
349 351 354 354 354 355 355 355 356 357 358 358 357 358 359 358 358 356 356 354 354 353 352 351 350 351 351 351 350 349 349 349 344 342 342 342 343 344 342 340 339 337 340 344 346 344 346 351 353 352 352 355 354 355 356 355 354 358 359 357 357 354 353 353 354 355 357 358 358 358 357 358 358 359 360 361 360 360 359 357 355 353 353 354 355
351 352 353 354 354 354 355 355 356 356 357 358 357 357 357 357 356 357 355 355 355 354 354 352 352 352 352 353 351 350 350 349 346 346 346 348 347 346 345 343 339 336 337 338 340 345 346 348 350 351 351 353 355 355 356 354 354 358 357 356 356 356 353 352 352 354 355 356 356 356 356 357 359 360 360 359 359 359 359 358 356 354 355 355 356
351 353 353 354 354 354 353 354 355 356 356 357 357 358 357 357 355 355 354 355 357 354 354 353 354 353 351 350 350 352 352 352 350 350 352 352 349 348 348 345 344 341 339 337 339 339 347 350 349 353 353 354 354 354 354 355 355 356 355 356 356 356 353 350 351 352 352 352 352 352 354 356 358 359 358 358 358 358 358 357 357 356 356 356 357
352 353 354 353 354 358 354 354 355 355 356 356 357 357 357 356 355 355 355 356 354 355 356 354 353 353 354 352 352 351 354 354 353 353 354 354 350 348 349 348 349 346 342 338 340 341 345 348 349 351 355 353 352 352 354 354 354 354 355 354 355 355 352 352 352 350 349 348 349 351 353 356 357 358 357 357 357 357 357 358 357 356 356 356 357
354 354 354 353 354 354 355 354 354 356 356 356 357 357 357 355 355 354 354 353 352 352 355 356 353 354 352 350 350 351 356 355 355 355 356 355 354 353 353 352 349 349 347 343 338 344 344 347 349 353 352 351 351 353 352 353 353 353 354 354 354 353 354 354 352 350 348 347 346 347 351 355 356 357 357 357 357 356 356 357 357 356 356 357 356
353 353 353 353 353 353 354 354 354 354 355 356 356 356 356 355 355 353 353 352 350 351 353 355 356 353 352 352 354 354 355 355 355 354 354 355 354 353 352 352 351 349 350 346 342 342 348 348 350 351 350 350 352 350 350 352 352 351 354 355 355 353 354 354 352 350 348 346 345 345 345 348 352 354 355 355 356 356 356 356 357 356 356 356 355
352 352 353 354 354 354 354 355 354 355 355 355 355 356 356 355 355 355 355 353 352 352 354 353 355 354 355 352 351 352 354 354 354 354 353 352 352 353 353 352 352 351 350 347 343 343 347 349 349 348 349 351 348 349 348 349 350 352 352 354 354 353 353 353 353 348 347 346 345 343 342 343 346 349 351 353 354 355 355 355 354 354 353 352 351
349 349 350 351 352 353 353 354 355 355 355 355 356 355 354 354 354 353 354 353 352 352 353 351 352 354 353 352 351 351 353 353 354 351 351 351 353 353 352 349 351 349 350 347 343 341 341 345 346 350 350 350 345 349 347 346 347 350 349 351 353 354 352 352 351 353 346 344 343 342 341 340 341 343 346 348 350 351 351 349 349 348 346 345 344
350 349 350 349 350 351 351 353 354 354 355 355 355 354 354 353 353 352 354 352 351 351 351 350 350 351 350 351 351 351 352 352 352 348 351 352 354 351 349 348 348 349 348 347 344 340 340 342 345 345 347 348 346 345 348 348 349 348 347 348 350 352 353 352 351 350 344 343 342 341 340 339 339 339 340 341 343 344 344 343 341 337 334 334 333
349 350 349 348 349 349 349 350 351 353 354 354 355 354 353 353 352 352 355 352 352 351 351 349 348 348 349 348 348 349 351 349 349 347 347 348 349 349 349 348 348 348 348 347 345 343 341 340 344 345 347 345 347 348 348 348 346 345 346 347 350 349 350 349 347 348 345 343 343 342 340 339 338 337 337 336 336 337 336 332 330 330 330 330 330
350 350 351 350 348 349 348 348 350 351 352 353 353 354 354 354 354 353 352 346 348 348 348 348 349 347 347 347 348 349 349 347 347 346 347 346 347 348 347 347 348 348 347 347 346 344 342 340 342 346 347 345 346 346 346 343 342 343 346 345 346 347 347 346 346 346 344 344 343 342 341 340 339 337 335 333 332 332 332 331 330 329 329 328 328
351 350 350 351 350 348 349 350 350 351 352 353 353 354 355 355 355 354 350 348 347 347 347 346 347 348 347 346 348 349 348 347 347 346 346 346 347 346 346 346 346 347 347 347 347 346 344 343 342 342 343 342 342 342 343 342 339 339 341 344 346 346 344 341 343 343 345 347 347 346 342 343 340 337 333 332 332 333 333 333 333 332 332 331 327
351 350 350 350 351 350 350 351 351 352 352 354 354 355 356 356 354 351 348 347 346 346 345 344 344 346 347 347 347 348 348 347 346 347 345 345 346 346 347 345 346 345 346 345 345 344 343 342 343 340 340 343 339 336 341 343 341 340 338 338 339 342 343 341 340 342 345 346 344 343 343 343 342 341 329 330 332 332 332 333 335 337 338 332 326
351 350 350 350 351 352 351 351 354 355 354 354 354 355 354 354 352 350 347 345 345 344 344 344 345 346 346 347 349 349 348 348 348 348 347 348 347 347 346 344 345 346 344 345 344 343 342 341 340 340 341 337 337 338 340 339 336 336 337 337 335 335 337 340 339 339 343 344 343 345 344 343 342 339 335 335 336 335 334 335 336 337 338 332 327
350 351 350 351 351 352 353 353 355 356 354 353 353 353 353 352 350 348 347 346 345 344 343 343 345 345 346 347 347 348 351 352 353 352 352 351 348 347 346 347 346 345 344 343 343 341 341 341 340 338 336 335 335 334 333 333 332 331 334 335 334 335 335 336 339 342 342 340 342 344 344 342 342 339 341 342 342 340 339 336 337 337 336 330 327
347 348 350 352 352 352 352 353 353 353 353 353 357 358 356 352 349 348 349 348 345 342 343 344 345 345 346 347 351 352 351 351 350 349 350 350 351 352 350 346 346 345 344 342 342 342 341 340 337 335 333 330 332 333 332 333 335 334 333 332 331 333 334 335 338 340 341 340 338 341 342 342 340 340 340 338 339 340 338 338 334 332 330 326 325
345 347 351 350 352 352 352 351 351 352 353 353 358 347 349 355 350 348 347 346 344 344 345 345 346 346 344 344 346 346 342 342 345 347 348 347 347 348 350 351 350 347 344 343 343 343 341 338 334 333 331 331 332 332 332 333 334 332 331 331 331 332 330 329 329 336 342 340 339 338 339 340 341 337 337 337 337 337 336 335 328 328 327 326 325
345 347 348 349 351 351 351 351 351 352 352 355 343 344 348 349 352 348 347 345 344 343 346 347 346 343 339 336 337 340 342 339 334 337 345 347 348 348 350 351 351 351 351 348 345 340 338 335 333 332 331 331 331 332 333 333 332 333 333 331 331 330 329 329 330 329 336 341 337 336 337 340 340 337 336 336 336 337 334 329 327 327 327 326 326
347 347 347 350 348 348 349 348 348 350 351 350 339 343 344 345 349 352 348 346 344 344 346 347 344 340 338 335 332 332 336 339 335 334 337 343 346 347 346 348 348 348 344 345 346 345 342 335 333 331 332 332 331 332 334 334 333 331 331 331 330 330 331 330 331 331 334 340 335 334 333 334 336 334 333 335 336 336 335 331 327 328 328 327 326
347 347 349 346 345 345 346 346 345 346 348 349 338 340 342 343 346 351 349 348 347 347 347 345 342 340 338 334 332 331 332 334 334 334 334 335 336 336 337 337 338 341 344 344 344 344 341 336 334 331 332 334 332 333 334 335 333 332 331 330 331 331 331 330 333 334 336 335 331 331 330 331 333 333 332 334 336 336 335 328 324 327 327 326 326
346 344 344 345 346 347 348 347 346 345 348 339 337 339 338 340 344 353 350 349 348 347 346 344 341 335 333 332 332 331 332 335 338 335 334 335 334 334 334 334 334 334 333 335 336 336 336 334 332 332 331 332 333 334 336 336 335 336 335 334 334 333 333 334 334 334 333 334 332 331 325 330 332 330 330 333 335 336 335 328 324 325 325 325 324
344 345 345 345 344 344 345 345 344 343 341 334 336 336 335 338 346 350 348 346 345 344 342 338 335 333 332 332 331 330 331 333 337 336 335 335 333 331 330 329 329 329 328 331 329 331 331 331 330 329 328 328 330 331 331 332 335 337 338 338 337 334 331 329 327 329 327 328 326 327 326 327 329 327 328 333 335 333 332 333 328 326 324 323 323
342 342 343 343 343 344 343 343 342 341 338 332 330 331 333 336 345 345 343 342 340 338 336 332 331 331 331 331 331 331 331 333 333 328 331 332 329 328 326 325 326 326 325 326 327 327 326 324 324 326 326 325 326 325 324 326 329 332 332 330 328 330 328 325 325 326 320 319 321 322 327 321 325 325 326 329 333 332 327 329 330 325 323 322 321
342 342 343 342 343 343 343 341 341 339 334 331 327 328 331 336 345 341 340 338 337 335 333 334 336 336 337 337 334 332 332 333 329 327 328 330 326 325 324 323 323 323 322 322 321 322 323 323 323 322 323 323 324 325 325 325 326 328 327 323 325 328 326 325 322 324 319 316 318 320 326 318 323 323 324 326 330 332 326 328 326 325 323 321 320
343 343 343 341 341 341 342 341 343 339 334 332 323 326 330 333 340 339 338 336 334 333 333 333 335 335 336 337 337 335 333 331 324 324 326 328 325 323 323 322 320 320 321 321 320 320 320 318 318 319 320 321 321 321 323 324 325 325 324 323 326 326 322 320 319 321 314 311 316 321 322 315 319 318 321 319 318 327 326 325 325 321 322 322 321
Wind_Speed
5 5 5 5 5 5 4 4 4 4 3 4 3 4 5 5 5 5 5 5 5 5 5 5 3 1 3 3 4 3 3 3 3 3 3 3 4 5 9 9 8 8 8 8 8 8 7 6 6 6 6 6 5 5 6 7 6 6 6 6 6 6 7 6 6 6 6 6 7 7 8 9 9 9 10 10 10 11 11 10 11 12 12 12 12
5 5 4 5 5 5 4 4 4 4 3 4 3 3 4 5 5 4 5 5 5 5 4 5 4 1 3 3 4 4 4 4 4 4 3 4 4 4 9 10 9 9 9 8 8 8 8 7 7 7 7 7 7 6 5 7 6 6 6 6 6 6 7 7 7 6 6 6 6 7 8 8 9 9 9 10 10 9 9 10 10 9 11 10 10
5 6 5 5 5 5 4 3 4 4 2 4 3 3 3 3 4 4 5 5 5 4 4 5 3 2 2 3 4 4 4 3 3 3 4 4 4 4 5 11 11 10 10 10 9 9 9 8 8 8 7 8 8 7 7 6 6 6 6 7 7 6 7 7 6 5 6 6 6 6 7 7 8 8 8 9 9 9 9 9 9 10 11 11 10
6 6 5 5 5 5 4 4 4 4 3 3 3 3 3 4 4 3 4 4 4 4 4 4 4 3 2 3 3 4 4 4 4 4 4 4 4 4 5 6 10 11 10 10 10 10 9 9 9 9 9 8 8 8 8 6 6 6 6 6 7 6 7 7 6 6 6 6 6 7 7 7 7 7 8 8 8 8 8 9 8 9 9 9 9
6 6 6 5 5 5 4 4 4 4 3 3 3 3 3 4 5 2 3 3 4 5 4 3 4 5 3 3 3 4 4 4 4 4 5 4 4 4 4 5 6 9 11 10 11 11 10 11 10 10 9 9 9 9 9 8 8 8 7 7 7 7 7 7 7 7 7 7 7 7 7 7 8 8 8 8 8 8 8 8 8 9 8 9 8
6 7 6 5 5 5 5 5 4 4 3 3 3 3 4 4 4 4 4 4 5 5 4 5 5 3 4 3 3 3 3 4 5 5 4 5 4 4 4 4 5 6 6 10 11 11 11 11 11 10 10 10 9 9 9 10 9 8 8 8 8 8 8 8 8 7 7 7 8 8 8 8 8 8 8 8 8 8 8 8 8 9 9 9 8
7 7 6 6 5 5 5 5 4 3 3 3 3 3 3 4 4 4 4 4 3 4 4 4 5 5 4 2 3 3 3 5 4 5 5 5 3 4 4 4 4 5 6 5 7 11 11 11 11 11 11 10 10 10 10 11 11 10 9 9 9 9 9 9 9 9 8 8 8 9 9 9 9 9 9 9 8 8 8 8 8 8 8 8 8
7 7 6 6 5 5 6 5 4 3 3 3 2 3 3 4 3 1 4 4 4 5 4 4 4 5 4 2 3 3 4 4 5 5 5 4 4 4 4 4 4 4 5 5 5 5 10 11 11 11 11 11 11 11 11 12 12 12 11 10 10 10 10 10 10 10 10 10 9 9 9 9 9 9 9 10 9 9 9 9 9 9 10 10 9
7 7 6 6 6 6 5 5 4 3 3 3 3 2 2 3 4 3 2 3 3 4 5 4 5 5 4 4 3 4 4 5 5 5 4 5 5 5 4 4 4 6 5 5 5 4 8 12 12 12 12 12 12 12 12 12 13 13 12 12 11 11 11 11 11 11 11 11 10 10 10 10 10 10 10 10 10 10 10 10 10 10 10 10 10
7 7 6 6 5 5 5 5 4 3 3 2 3 3 2 2 4 3 2 2 3 4 5 4 4 4 5 5 3 2 4 5 4 4 4 5 4 5 5 4 4 5 5 5 5 5 5 8 12 13 13 13 13 13 13 13 13 13 13 13 12 12 12 12 12 12 11 11 11 11 11 11 11 11 11 11 11 11 11 11 11 11 11 10 10
7 7 6 6 5 5 5 6 4 4 3 3 3 4 3 2 3 4 2 3 3 4 4 3 4 5 5 6 4 4 3 3 3 4 4 5 5 5 4 5 5 5 6 6 5 5 5 5 5 5 7 13 14 14 14 14 14 14 14 13 13 13 14 13 12 12 12 12 12 12 12 12 12 12 12 12 11 12 12 12 12 12 12 12 11
7 7 7 6 5 5 6 5 4 4 4 4 4 4 4 3 3 3 4 3 3 3 2 3 4 5 5 5 4 3 3 4 4 5 4 5 5 4 5 4 5 6 6 6 5 6 5 5 5 5 6 9 14 15 15 15 14 14 14 14 14 14 14 14 14 13 12 13 13 13 12 13 13 13 14 13 13 13 12 12 13 13 13 12 12
7 7 7 6 5 5 5 5 4 4 4 5 5 4 3 3 2 1 2 3 2 1 2 0 3 4 4 4 6 3 3 3 5 5 6 4 3 4 3 4 5 5 5 5 6 6 6 6 6 5 6 6 8 14 16 16 16 15 15 14 15 15 15 15 15 15 14 14 13 13 13 14 14 14 15 14 13 13 13 13 13 13 13 13 12
7 7 6 6 6 5 6 6 5 5 5 4 4 3 3 3 2 2 2 2 3 2 3 1 2 1 4 6 5 5 3 2 4 5 4 3 3 4 4 5 6 5 4 5 6 6 7 6 6 6 6 6 6 6 7 10 13 17 16 16 16 16 16 16 16 16 15 15 15 13 13 14 15 15 15 14 14 14 14 15 14 14 14 13 13
8 7 6 6 6 6 6 5 5 5 4 4 4 5 3 4 4 4 3 1 2 3 4 3 2 1 1 1 2 5 5 5 2 3 4 4 4 5 5 6 8 6 4 4 5 6 6 7 7 7 6 7 6 7 7 8 9 12 15 17 17 17 17 17 17 17 17 17 16 14 14 15 16 16 16 16 16 15 14 15 15 14 14 13 14
7 6 6 6 7 7 5 5 6 5 6 5 5 5 4 4 3 4 3 3 1 2 1 3 3 0 2 0 1 1 5 2 4 6 2 3 4 5 5 6 5 4 4 6 6 5 5 6 7 7 7 7 6 6 6 7 10 13 15 16 17 17 18 18 18 18 18 17 17 16 16 16 17 16 16 17 17 15 14 14 13 13 13 14 14
7 7 6 8 7 6 6 6 6 5 5 5 5 5 4 4 4 3 4 4 3 2 2 2 3 2 2 0 2 1 3 3 4 6 3 4 3 3 3 4 4 4 5 6 4 4 5 6 6 6 7 7 7 7 7 7 7 7 10 14 17 17 17 18 20 19 19 18 17 17 17 18 17 16 16 17 17 15 15 14 14 13 14 14 14
7 7 7 7 7 7 6 6 6 5 5 5 5 4 5 5 4 4 4 4 4 2 3 2 3 3 5 5 3 1 2 2 1 4 5 3 4 4 3 3 4 4 4 5 5 5 5 6 5 6 6 7 7 7 7 7 7 6 7 8 16 17 18 19 20 20 20 19 18 18 18 18 17 17 17 17 17 16 15 15 15 14 14 14 14
8 7 7 7 7 6 7 6 5 5 4 5 5 5 5 5 4 4 5 3 3 4 4 4 3 3 3 5 4 4 3 1 3 1 4 5 4 3 3 2 3 4 4 4 4 4 4 5 6 6 6 6 6 7 6 7 8 9 11 12 14 16 17 19 20 20 20 19 19 18 18 18 18 18 18 17 17 16 16 16 15 14 14 14 13
8 7 7 7 7 6 7 6 6 5 5 5 5 5 4 4 4 4 3 4 5 5 5 2 3 2 1 2 4 3 3 4 5 4 3 3 6 4 2 3 3 2 2 3 3 3 4 4 5 5 5 6 5 6 6 6 7 7 8 14 15 16 17 18 19 20 20 19 18 18 18 18 18 18 17 16 16 17 17 15 15 15 13 14 14
7 8 7 7 6 6 6 6 6 6 5 5 5 5 6 6 5 4 5 4 5 5 4 5 4 5 3 3 2 3 2 3 3 3 4 2 4 3 5 4 3 2 3 2 2 1 3 4 4 4 4 4 5 5 6 5 6 6 7 11 13 14 15 16 18 19 19 19 18 18 18 18 18 18 15 14 14 16 16 16 14 15 15 16 15
6 7 7 7 7 6 6 7 7 6 5 5 6 6 6 6 6 6 5 5 4 5 6 5 4 4 4 3 3 1 1 1 2 3 1 3 4 3 3 3 4 4 3 4 4 3 2 2 2 3 3 3 3 4 4 4 3 4 5 8 10 11 12 14 17 18 18 19 19 18 18 18 18 15 12 14 16 15 17 16 13 15 16 18 18
6 6 7 7 6 6 6 7 6 6 6 6 6 6 6 6 6 6 6 6 5 5 5 5 4 4 4 4 5 5 5 4 4 3 3 3 1 4 4 3 3 4 3 3 4 4 3 3 3 3 2 2 1 1 1 1 2 3 6 6 6 7 9 11 13 15 16 18 17 17 17 17 14 15 12 13 14 16 16 17 19 19 20 23 19
5 6 6 6 6 6 7 6 6 6 6 6 6 6 6 5 5 5 5 6 4 4 4 5 5 4 5 4 5 4 3 4 3 3 5 4 4 4 3 2 2 3 4 4 3 2 3 4 3 3 3 2 1 1 1 1 1 4 4 4 6 7 7 7 8 10 12 13 14 14 14 14 11 12 14 8 14 17 17 14 17 19 18 21 22
6 6 6 7 6 6 6 7 7 7 7 7 7 6 6 6 6 6 5 6 5 5 4 6 6 6 6 4 4 4 5 4 3 3 3 2 4 4 2 1 3 3 2 1 2 3 1 2 3 2 2 2 3 2 2 3 3 5 8 3 4 5 6 7 7 8 9 9 10 11 11 10 11 9 5 7 7 12 12 13 16 17 17 17 18
7 8 7 7 6 8 8 8 8 8 7 8 7 7 7 6 6 6 6 5 4 5 6 6 5 7 5 4 5 5 4 4 4 4 4 4 3 4 3 1 2 3 2 2 1 1 2 0 1 1 2 3 3 3 4 3 3 7 10 7 7 9 9 8 8 8 8 9 9 9 9 9 8 8 7 6 4 6 10 11 14 15 14 15 17
8 7 7 7 8 7 8 8 8 8 8 7 6 6 7 6 6 6 5 4 5 4 5 5 5 6 6 5 5 4 4 4 4 4 4 4 4 3 4 3 2 1 2 2 2 4 5 1 1 1 2 3 3 4 4 5 5 8 9 6 6 9 10 11 10 11 10 10 9 9 9 8 8 8 8 6 6 6 3 11 12 13 13 15 18
6 6 7 7 7 8 7 8 9 8 7 7 7 6 6 6 6 5 5 3 4 5 5 4 5 5 5 3 2 3 3 3 4 3 4 4 4 3 3 4 3 4 1 3 2 3 1 2 0 1 2 2 4 4 5 6 5 10 8 5 5 6 9 10 10 10 10 10 9 9 9 9 9 10 9 8 8 8 6 5 9 13 14 13 15
6 5 6 7 8 8 8 8 9 8 7 8 7 7 7 6 6 6 6 4 4 6 4 4 5 3 3 5 4 3 3 2 2 3 3 3 3 3 3 4 4 3 3 3 4 3 1 0 0 1 2 3 4 5 5 5 7 9 6 6 6 6 8 11 11 10 9 9 9 9 10 10 10 10 9 9 9 9 8 7 7 8 11 11 13
6 6 7 7 8 9 8 8 7 7 7 6 7 7 7 5 6 6 6 5 4 4 4 4 3 2 2 2 2 3 3 4 3 2 2 3 3 3 3 2 3 5 3 4 4 2 1 1 0 2 2 5 5 5 4 5 7 8 6 6 6 6 9 10 9 9 9 9 9 9 10 10 10 9 8 8 8 9 9 8 7 8 10 11 11
7 7 7 7 6 7 8 7 6 6 6 6 6 6 6 6 5 5 5 4 4 5 5 4 2 2 4 5 3 3 2 2 2 2 2 2 2 2 2 2 3 4 4 3 3 1 1 0 1 2 3 5 5 5 5 5 6 7 6 5 5 9 10 7 8 8 8 9 9 9 10 11 11 10 10 9 9 8 9 9 9 8 8 10 11
7 8 7 7 7 7 6 7 6 6 6 6 6 6 6 6 6 5 4 5 5 4 1 0 2 3 3 2 0 1 2 2 2 2 2 2 2 2 2 2 2 3 4 4 4 7 1 1 1 3 5 5 5 5 6 5 5 7 5 5 6 8 7 7 8 8 9 10 10 9 9 9 10 11 11 10 9 9 9 9 9 8 8 8 10
7 7 7 6 7 6 6 6 7 6 7 6 6 6 6 7 6 6 5 5 5 3 4 4 1 2 2 2 3 2 2 2 2 2 2 2 2 1 1 1 2 2 3 4 4 6 1 1 1 2 3 4 6 5 8 8 7 6 7 5 6 7 8 7 8 8 10 10 10 10 9 9 9 10 10 9 9 9 9 9 9 9 9 9 8
7 8 8 7 6 7 6 6 6 6 6 7 6 6 7 7 6 5 4 6 6 6 5 6 5 3 3 3 2 1 1 2 1 1 2 3 3 2 2 2 2 2 1 2 3 3 5 1 3 2 2 3 7 5 7 8 9 8 9 7 5 5 7 7 7 6 10 10 10 10 9 8 8 8 8 8 8 9 9 9 9 9 8 7 7
8 8 8 8 8 7 7 6 7 6 7 8 6 7 7 8 7 5 5 8 8 8 7 7 5 3 3 3 3 3 3 3 3 2 3 3 2 3 2 1 2 1 2 3 3 3 4 3 0 4 2 5 5 7 8 7 7 6 6 7 6 5 4 5 5 5 7 10 10 9 9 9 8 8 8 8 8 8 8 8 8 7 7 7 7
9 8 8 9 7 7 7 7 7 7 7 7 7 7 9 9 9 8 8 6 3 2 5 5 5 5 4 4 4 4 3 3 2 4 4 5 3 3 2 2 2 2 2 2 3 4 1 4 2 2 1 6 5 5 6 6 6 6 5 6 5 6 5 5 5 5 6 9 9 8 9 9 8 8 8 8 8 7 7 7 7 7 7 7 7
8 8 8 8 7 7 7 8 8 8 8 8 8 8 8 8 8 7 6 7 7 9 6 5 5 4 4 5 4 3 3 3 2 2 2 3 2 2 2 1 2 2 1 2 2 3 3 4 3 1 2 3 4 5 5 7 7 6 6 7 6 6 6 6 4 4 5 7 7 8 9 9 9 9 10 9 9 8 8 8 7 7 7 6 7
9 8 9 7 6 8 8 8 8 8 8 8 8 8 8 5 4 5 8 9 9 9 7 5 4 3 5 5 3 2 3 3 2 1 2 2 1 1 1 1 1 2 1 2 3 3 5 4 2 2 3 5 4 3 4 6 6 5 5 5 5 5 6 8 6 4 3 4 5 6 6 7 8 8 10 9 10 10 10 9 8 8 7 6 6
9 8 7 7 6 7 8 8 8 7 7 7 7 7 7 7 8 9 8 8 7 6 5 4 3 3 4 2 2 3 3 3 2 3 2 2 2 2 2 2 3 2 3 2 1 2 2 3 2 3 2 2 3 4 5 4 3 2 5 5 5 4 4 4 5 4 4 5 4 4 5 5 5 6 8 10 12 11 11 10 9 10 9 8 5
8 8 7 8 8 8 8 8 7 7 7 7 7 7 8 9 9 8 9 9 6 3 3 4 3 3 2 2 2 2 2 3 4 4 4 3 3 2 2 3 3 3 2 2 1 1 1 2 2 1 1 2 3 3 3 3 3 2 5 4 5 6 7 4 2 3 5 5 5 5 5 5 6 7 9 9 11 12 12 10 11 11 12 11 10
5 5 7 8 8 8 7 7 7 7 7 7 7 8 8 8 9 10 10 10 8 4 2 3 2 3 3 2 3 3 4 6 8 6 5 5 3 3 3 3 3 3 2 2 3 1 4 2 1 2 2 2 3 4 4 4 5 4 4 4 3 5 6 4 2 1 3 5 5 3 4 5 4 5 4 5 6 10 9 10 9 12 12 10 10
8 8 7 6 7 8 8 7 6 6 6 5 9 14 12 10 9 8 7 8 9 8 6 4 3 2 2 2 2 6 4 5 6 4 4 4 4 3 3 4 4 3 3 3 3 3 3 4 3 3 2 2 2 3 2 2 2 3 4 4 4 5 5 4 1 0 2 6 6 5 3 4 3 4 4 6 6 7 7 8 8 8 10 12 11
9 9 8 7 7 7 8 8 7 6 6 6 14 14 14 15 10 8 6 5 7 8 9 7 6 6 4 3 4 5 5 5 4 5 4 3 3 3 3 6 7 5 4 3 3 3 4 2 3 3 2 2 2 2 1 2 2 4 4 3 3 4 5 5 4 3 1 5 4 3 2 4 4 6 5 5 7 7 8 8 10 12 13 14 13
8 7 9 9 6 4 3 6 7 6 6 10 13 11 9 9 11 8 6 6 6 7 8 8 7 6 5 5 4 3 3 3 3 4 4 5 5 5 7 10 7 4 3 1 2 3 3 4 4 2 2 2 2 3 3 4 5 5 4 3 3 3 4 3 3 3 4 5 5 3 2 4 5 6 5 6 7 6 6 8 13 12 12 14 13
7 8 7 6 6 3 3 5 4 2 1 8 14 13 11 12 15 13 7 7 7 6 7 7 7 5 5 5 4 2 4 7 5 4 4 5 9 12 13 12 12 13 11 11 9 5 3 5 5 4 4 3 3 3 3 3 2 3 4 3 3 3 3 4 4 3 6 6 4 3 3 5 5 6 5 6 6 5 6 9 11 12 14 14 14
7 5 5 8 9 6 6 5 3 4 6 3 12 14 11 11 12 10 8 8 7 7 8 8 5 6 5 5 4 4 4 5 4 5 5 5 5 6 7 7 8 12 14 15 15 13 10 7 7 6 4 3 3 2 3 2 2 4 3 3 3 4 5 4 5 4 4 7 7 4 2 6 8 6 5 5 5 4 5 8 13 14 14 15 15
6 7 8 9 9 8 6 5 5 6 4 10 10 11 11 12 13 11 8 8 7 6 6 6 6 6 6 5 6 6 5 5 4 5 5 5 6 6 8 8 8 8 9 8 7 7 7 7 7 6 5 4 4 4 3 1 2 3 3 2 4 5 3 3 1 2 5 8 10 6 5 7 7 6 5 5 4 4 5 7 13 13 14 15 14
8 7 7 7 9 9 7 7 7 6 5 10 12 12 12 13 13 7 8 7 8 8 8 7 6 6 5 6 7 7 6 6 6 8 7 6 6 8 8 8 7 8 9 10 11 11 9 7 6 6 6 7 9 8 8 6 4 4 2 2 3 3 3 3 5 5 6 7 9 8 5 6 6 5 6 4 3 4 6 7 10 14 13 14 14
11 10 9 10 10 9 9 9 10 9 5 7 12 13 14 15 11 7 7 7 8 9 7 6 6 6 5 7 7 7 7 7 6 7 7 9 7 7 7 7 6 6 5 5 10 12 12 12 12 12 11 11 12 13 13 14 10 6 1 2 5 4 4 4 4 4 6 7 8 9 5 5 6 6 5 5 4 3 8 9 8 11 12 13 14
11 10 10 10 10 11 12 11 8 7 6 7 12 14 16 14 13 10 8 9 9 8 8 7 7 8 9 13 10 8 8 7 6 8 7 9 7 6 6 7 7 6 5 4 3 5 10 11 12 14 15 14 15 15 16 15 15 11 7 5 5 3 4 3 2 3 4 6 8 11 4 5 5 6 5 4 3 2 7 7 8 9 11 11 12
9 10 11 10 9 7 6 7 12 10 9 9 12 14 17 16 13 9 9 9 10 9 10 9 9 9 9 10 12 9 8 8 10 9 10 9 7 6 6 7 7 7 4 4 5 6 6 8 8 9 10 12 10 9 11 17 17 13 9 7 5 5 5 5 4 2 3 7 9 12 4 6 6 6 6 4 3 2 6 6 7 8 8 9 9
Wind_Direction
272 274 286 280 283 282 284 278 289 288 319 308 315 318 318 317 323 318 320 325 325 321 329 329 339 204 172 180 185 172 176 183 196 203 206 205 209 227 231 227 236 240 240 239 237 237 241 239 234 231 233 240 239 233 223 217 222 228 234 237 244 251 254 253 251 250 254 253 253 252 253 253 251 250 247 246 243 242 243 242 246 244 244 242 245
263 271 269 277 280 282 278 278 286 287 294 291 305 305 303 313 314 319 322 326 321 319 329 326 331 251 180 184 189 186 179 183 196 204 204 208 210 215 231 224 227 234 237 239 240 241 245 245 241 241 236 241 245 254 229 219 224 234 234 241 245 253 251 251 257 257 266 268 264 262 260 257 258 258 253 252 255 255 260 252 249 252 255 260 257
253 261 264 265 274 275 269 279 282 281 264 276 293 291 297 288 297 314 318 318 312 311 318 321 321 291 215 197 191 176 183 184 195 205 210 210 205 210 229 231 224 226 230 234 237 239 241 244 244 247 244 242 247 250 268 237 227 239 246 246 254 258 252 251 259 261 264 265 266 270 272 271 267 262 260 261 262 259 252 252 255 241 240 244 244
247 256 254 263 262 258 262 269 269 277 277 274 294 310 302 298 293 286 287 295 304 309 309 311 317 306 250 219 197 190 181 183 197 202 213 211 207 210 217 232 232 225 227 232 234 236 240 242 242 245 248 247 247 253 253 258 242 249 245 247 253 254 252 255 259 263 266 267 270 270 270 266 262 261 259 257 255 255 261 260 257 263 265 266 259
245 246 253 251 254 257 263 254 258 272 285 286 301 311 321 321 309 308 299 319 318 321 321 311 312 316 305 247 201 205 189 186 200 201 207 212 211 207 213 223 235 235 230 230 235 236 236 237 239 242 247 249 249 249 250 258 258 252 255 253 254 254 253 252 257 256 260 263 262 258 258 260 261 258 255 255 254 254 254 253 252 254 253 256 262
239 246 241 247 247 249 250 257 252 258 272 287 306 310 318 312 303 328 326 339 320 307 318 321 317 304 293 270 218 217 191 203 206 210 201 213 209 211 212 214 227 232 237 236 234 238 240 240 240 239 243 249 250 249 249 251 256 251 250 250 249 253 254 256 258 256 253 257 259 256 252 250 252 254 253 253 255 252 250 252 251 248 249 252 254
231 238 241 236 242 246 242 242 245 247 271 275 272 292 283 289 302 319 313 314 298 292 302 303 308 308 299 261 235 219 202 216 214 217 213 212 203 217 215 217 221 231 236 237 244 241 241 244 244 244 244 246 248 249 248 248 250 257 260 246 244 251 257 258 259 257 255 253 254 256 255 253 252 253 253 253 250 250 248 249 252 252 250 251 250
231 227 235 230 231 238 244 244 239 237 249 267 263 292 309 300 284 236 313 302 324 310 317 311 304 298 294 259 233 222 216 216 218 219 221 210 215 217 218 219 220 227 232 238 238 246 247 245 246 246 245 245 246 248 249 248 247 249 253 256 249 248 254 257 257 256 254 253 255 257 257 257 255 255 255 254 255 250 246 243 245 245 247 251 256
230 224 224 228 226 233 245 237 229 229 255 274 300 285 305 301 292 276 201 268 304 306 310 316 309 304 308 294 239 213 219 218 219 217 208 220 219 220 223 223 224 229 230 232 235 237 243 248 248 247 248 247 246 247 248 249 249 248 249 250 252 252 251 253 255 258 257 255 256 258 257 255 255 255 256 256 255 255 256 254 251 252 253 253 260
228 221 221 227 225 233 244 240 228 215 228 276 288 303 291 219 271 280 228 240 297 308 306 314 312 311 311 304 308 224 229 226 225 219 213 223 219 222 221 221 225 226 229 232 233 233 238 244 248 250 250 249 248 248 248 248 250 250 249 249 249 249 251 250 253 257 258 258 256 257 259 259 258 258 257 258 260 261 261 259 256 256 258 259 258
226 217 219 222 223 229 239 241 224 224 228 263 285 300 303 221 238 276 281 246 244 273 275 294 303 301 296 303 312 276 233 229 217 216 221 227 224 224 214 221 222 225 228 231 232 232 235 235 239 244 248 246 246 246 247 247 247 249 249 248 248 248 250 253 254 255 255 256 257 256 257 257 258 257 256 255 255 256 256 255 254 253 253 253 256
222 215 218 221 217 222 230 229 220 214 232 245 257 266 280 278 245 246 288 293 230 251 260 293 288 289 302 304 289 286 247 215 220 222 222 224 221 217 224 216 218 225 225 227 225 232 230 231 232 233 241 245 245 246 246 247 246 247 248 249 249 249 249 251 253 254 251 254 256 257 256 256 256 255 253 251 251 253 253 256 258 259 258 258 258
222 210 215 221 221 221 222 231 210 210 217 230 230 249 246 235 243 207 249 305 300 241 245 200 338 328 328 318 315 300 261 215 221 229 226 222 210 218 218 227 226 225 224 223 227 229 231 230 231 228 232 236 243 246 246 246 248 247 246 246 247 247 248 247 248 252 253 253 254 254 253 253 254 255 256 257 256 256 257 256 257 259 258 257 260
222 210 216 209 219 216 216 226 204 215 219 221 230 234 260 262 218 268 208 222 256 267 284 310 353 34 325 328 330 323 332 284 242 244 245 230 224 226 216 230 235 232 221 218 225 225 229 228 224 228 228 228 232 233 240 244 244 244 244 242 241 242 244 245 246 248 251 252 251 250 246 248 251 253 255 256 256 254 254 255 257 257 255 256 258
218 213 213 211 217 217 223 215 210 206 217 226 228 246 237 242 212 220 257 236 250 266 274 184 252 130 150 324 331 359 330 344 315 267 242 218 205 219 219 227 236 229 218 219 221 222 225 224 224 224 225 226 229 232 231 235 237 236 239 241 240 240 241 242 242 244 244 246 247 246 245 242 245 248 249 250 250 249 247 248 250 253 255 257 258
210 210 215 218 214 219 221 205 215 200 207 220 220 233 236 238 226 217 194 267 304 299 267 200 169 122 337 29 260 111 314 314 320 303 308 265 219 223 211 233 239 230 214 229 227 224 228 227 229 226 226 226 226 226 229 228 236 239 239 239 241 239 239 241 242 242 242 242 242 242 242 242 242 242 243 246 248 248 247 246 243 243 246 251 251
216 211 214 223 218 218 215 214 208 200 193 206 217 222 225 227 218 211 193 210 246 245 301 199 217 188 169 172 336 18 225 262 346 291 343 326 263 259 247 255 257 228 224 234 234 233 233 229 230 231 226 225 225 226 229 230 229 229 236 237 238 237 236 237 240 242 242 242 240 239 239 239 240 240 239 242 245 247 246 244 243 243 245 249 252
219 217 216 221 220 215 211 208 205 198 197 203 212 218 225 226 221 212 221 206 228 200 264 276 254 236 211 209 177 237 257 264 4 302 318 249 295 296 277 270 264 257 240 240 222 225 220 234 223 228 226 224 223 226 228 230 227 226 226 232 233 236 237 236 236 239 242 242 240 237 236 237 237 237 237 239 241 244 246 245 244 243 245 248 251
220 215 217 219 218 209 206 208 205 198 196 189 203 218 225 227 228 198 218 199 163 220 234 257 325 253 206 217 222 231 183 200 252 163 329 316 330 319 322 279 265 263 259 256 239 236 233 233 235 232 226 224 224 227 229 229 225 227 227 231 232 236 238 238 237 238 239 241 241 239 238 237 237 237 236 236 237 239 241 243 245 244 242 245 247
216 216 217 217 212 208 201 199 200 203 189 200 209 213 221 238 229 211 198 181 182 207 244 217 185 280 177 205 220 225 210 227 209 224 220 268 308 315 250 292 313 281 270 279 264 256 264 244 247 243 234 231 224 228 230 231 231 231 235 234 233 235 238 240 240 241 242 242 244 245 244 243 241 239 236 235 237 237 237 236 248 252 252 246 245
211 217 217 213 204 206 193 194 199 201 197 202 209 207 216 225 222 200 204 196 189 206 214 237 197 231 254 269 238 241 205 218 214 184 184 179 275 264 302 326 344 326 342 293 288 264 270 259 255 250 240 232 226 228 232 234 236 234 241 240 237 238 242 245 247 247 248 247 247 248 249 248 247 244 243 247 250 248 248 249 244 255 258 257 250
210 216 217 208 209 196 188 196 201 198 201 203 202 208 214 218 216 205 206 208 198 200 206 233 213 239 215 214 234 291 335 131 170 169 241 198 241 274 281 305 322 303 321 338 334 334 319 296 260 248 244 238 229 229 236 246 260 267 270 268 260 250 250 250 252 253 255 256 256 254 254 253 252 255 254 259 256 262 268 268 266 252 252 255 256
203 212 211 202 201 196 194 200 198 199 202 199 205 209 213 214 217 208 206 208 199 197 222 232 224 225 226 199 212 211 212 211 217 218 211 216 233 260 257 208 237 298 277 317 314 315 317 330 329 297 286 308 339 324 295 272 274 265 278 276 270 268 263 260 257 258 258 260 259 260 263 265 273 281 266 236 258 257 256 266 259 248 243 250 248
214 214 211 200 196 202 202 196 199 200 206 204 206 208 214 211 212 204 212 211 207 204 211 230 227 222 230 210 215 220 220 217 231 200 184 216 197 243 255 277 267 226 275 308 282 293 334 344 333 328 344 348 3 13 27 6 299 334 343 330 327 326 321 310 298 289 283 278 274 276 283 291 291 288 291 257 238 265 269 262 277 282 265 249 251
213 210 213 199 195 198 199 202 206 207 209 205 214 210 212 214 213 214 212 212 210 200 203 225 221 214 223 210 214 211 222 221 208 207 214 190 192 220 257 190 243 294 303 349 301 318 304 345 343 1 32 58 54 54 39 22 7 347 349 332 335 335 335 329 326 323 319 317 316 315 316 320 333 341 330 290 252 241 254 250 257 259 267 272 260
206 213 210 197 197 203 202 207 210 208 204 207 209 212 211 214 213 216 220 219 204 212 225 238 226 226 216 209 207 205 216 208 206 191 179 166 180 212 223 207 213 258 290 281 260 292 310 257 6 23 52 54 46 33 25 1 360 353 355 350 343 341 338 338 338 339 339 338 338 340 343 345 349 351 345 335 312 243 229 240 248 257 261 263 260
206 213 208 199 203 203 205 207 208 209 207 206 207 210 210 213 213 219 222 210 213 224 236 235 235 218 207 211 217 215 215 209 188 194 179 190 181 176 173 252 287 242 266 268 278 227 237 289 352 46 50 44 34 16 2 1 351 348 350 346 337 334 334 335 337 337 337 337 338 340 341 341 343 348 350 337 327 331 234 222 238 253 258 254 249
203 202 206 200 203 204 203 210 210 207 204 204 205 204 202 202 210 207 219 213 218 222 235 226 230 221 212 201 196 225 209 191 185 174 185 189 192 161 175 184 214 279 262 269 274 277 210 214 120 23 25 26 11 2 356 353 351 346 348 343 335 328 327 328 328 328 329 333 335 334 335 338 341 345 348 343 332 323 309 285 233 242 252 255 254
197 196 200 206 209 207 205 209 210 209 206 206 201 201 195 195 203 204 218 218 214 226 219 211 228 207 186 174 180 177 190 188 189 188 194 205 208 195 190 195 178 240 268 274 278 284 340 3 353 39 19 21 359 355 352 350 346 344 340 334 331 324 325 324 324 325 327 331 331 330 333 336 336 338 337 333 326 316 306 291 277 243 252 267 270
197 191 199 203 211 211 210 213 210 206 207 202 201 201 192 195 199 199 215 206 208 227 216 219 227 183 175 174 171 186 194 190 194 193 193 202 205 208 208 204 164 207 203 258 281 233 286 354 312 339 7 10 353 346 345 338 334 333 335 329 323 325 319 316 319 321 325 326 325 323 327 328 327 325 324 323 319 314 309 304 295 275 271 278 279
197 197 198 202 203 211 211 212 210 208 204 204 200 200 190 200 197 204 202 191 203 223 225 204 230 198 193 199 187 198 168 174 153 175 187 186 212 214 216 184 196 205 194 173 271 259 201 337 22 39 357 348 345 331 336 333 329 334 328 325 323 325 323 326 322 325 325 325 323 322 325 325 324 322 320 319 318 313 307 306 300 299 291 282 284
202 200 199 200 203 204 204 209 206 203 199 203 191 195 189 204 200 202 193 178 198 225 265 146 192 203 215 233 65 152 139 143 151 161 165 173 174 172 168 164 173 193 163 174 219 265 199 303 358 0 1 342 336 340 339 326 327 331 328 325 324 329 339 336 333 333 333 332 330 328 325 322 319 319 317 314 311 311 312 310 309 309 308 312 313
196 193 199 204 205 208 208 208 208 201 202 202 195 193 194 204 206 208 186 158 156 165 179 191 107 124 133 166 186 191 161 170 174 161 176 177 163 159 154 156 181 169 174 187 237 268 268 57 29 10 345 350 346 352 342 337 332 332 335 331 332 339 341 340 338 334 336 335 333 330 326 320 313 313 312 309 308 309 309 308 308 309 311 313 307
184 188 194 195 200 197 197 201 205 199 201 208 199 188 197 202 208 199 168 155 174 174 175 177 177 149 143 165 187 161 196 205 120 45 271 251 219 194 212 216 224 222 195 203 236 260 284 312 335 331 310 8 337 341 343 340 338 338 338 336 329 336 339 338 338 331 333 333 332 330 328 323 317 313 308 309 310 313 314 316 314 311 310 299 288
194 191 189 191 198 191 196 198 200 200 201 205 197 194 200 206 202 202 175 170 180 184 182 181 178 164 167 172 186 185 186 199 170 168 258 263 238 216 217 206 231 230 213 206 215 251 275 298 307 310 330 348 340 337 340 338 335 336 336 342 337 334 333 332 330 330 331 333 334 336 337 336 335 333 331 325 321 315 312 311 309 304 297 287 281
194 203 205 204 190 182 191 199 201 204 205 206 195 193 202 202 197 192 183 169 116 152 194 161 164 181 187 193 204 186 191 203 212 179 200 242 242 241 234 225 231 249 236 201 208 244 257 300 268 286 355 348 345 334 343 340 348 350 351 341 339 349 338 333 336 332 338 336 336 340 343 343 344 344 342 342 336 329 326 319 313 306 301 301 296
202 203 213 214 197 182 193 204 208 208 208 203 200 200 204 204 199 182 110 102 192 198 171 143 180 167 190 212 220 192 190 228 231 237 214 218 219 209 222 220 234 249 206 196 209 214 263 289 300 232 51 7 326 334 351 351 350 355 349 357 352 349 338 335 340 344 335 341 341 344 348 345 350 354 356 356 354 351 348 343 336 329 323 319 312
205 207 212 207 194 195 199 204 204 207 204 199 200 201 198 170 150 124 136 164 180 193 169 164 159 179 199 209 206 198 198 208 223 224 236 218 199 206 231 237 225 222 199 214 225 225 222 240 302 337 33 348 349 350 340 353 353 351 342 347 352 8 353 346 347 348 349 358 350 352 351 348 356 358 5 1 9 14 11 5 359 350 345 344 335
206 211 215 208 201 200 208 205 205 200 195 190 190 181 160 145 140 146 146 160 175 173 149 152 189 212 211 200 180 181 198 195 206 219 208 208 212 225 218 211 214 179 213 222 234 283 312 290 214 76 318 63 7 342 333 334 324 358 354 343 344 358 344 359 335 339 346 354 1 354 349 346 359 14 2 15 20 19 14 12 11 3 2 6 7
206 206 204 206 211 209 207 202 196 183 179 178 170 162 160 152 149 141 141 148 152 139 179 176 181 198 196 186 158 182 196 211 220 222 212 214 203 205 214 214 194 195 175 242 241 236 244 313 58 315 65 6 0 337 314 334 360 15 9 346 343 346 340 344 325 330 343 351 1 351 360 8 18 15 14 14 16 7 10 5 8 1 6 1 358
193 223 220 210 208 210 203 192 181 173 171 171 168 164 153 139 148 155 152 146 138 108 303 288 186 170 160 163 186 214 220 229 229 224 217 218 187 195 201 197 165 184 181 198 224 194 244 187 218 93 35 14 13 357 356 12 17 354 333 354 348 346 340 335 338 45 19 344 339 352 10 2 360 11 354 6 2 2 4 3 1 3 7 3 4
180 191 232 237 212 202 188 176 171 168 169 164 178 172 160 152 153 152 138 136 131 142 208 216 220 213 191 181 204 199 160 123 96 100 119 124 157 194 172 190 183 188 206 204 214 227 224 220 134 114 88 33 360 4 347 334 325 346 3 13 12 354 358 350 304 358 357 356 346 352 3 12 356 4 359 4 359 2 8 10 8 359 10 11 7
200 190 190 210 230 207 189 173 170 174 172 176 178 172 165 148 140 131 132 148 137 140 159 162 170 152 122 79 57 71 51 50 55 71 93 113 126 132 168 193 193 178 186 201 212 208 235 108 123 120 112 58 10 347 319 312 330 9 2 346 355 13 19 6 357 328 71 357 340 321 10 16 360 8 0 6 4 7 20 18 356 16 22 22 17
198 181 198 203 211 234 208 180 175 173 175 182 156 133 119 132 131 135 146 154 141 141 147 145 140 133 115 100 87 85 81 71 66 52 58 102 112 113 98 81 83 128 155 213 166 101 93 125 115 120 95 44 18 358 3 356 349 352 352 356 11 10 350 343 330 339 1 348 339 327 20 26 1 3 355 10 9 21 35 20 15 16 19 19 17
176 192 192 153 128 98 18 8 351 330 207 142 127 133 162 159 148 141 150 147 149 152 139 136 128 120 124 115 104 60 63 71 64 72 69 52 83 75 62 66 77 75 70 77 73 82 119 111 113 74 45 39 35 25 348 332 302 328 336 3 360 340 333 327 345 336 13 336 340 356 4 22 7 358 350 11 14 22 30 23 13 22 24 21 20
184 181 129 112 107 117 168 188 122 46 349 123 140 157 169 148 134 126 135 142 143 142 144 136 123 121 116 115 106 87 75 73 74 93 92 84 82 69 69 67 65 64 63 64 71 74 74 80 83 82 57 57 68 0 333 320 333 355 338 12 357 11 358 343 331 313 29 12 18 328 338 20 12 354 356 6 12 26 38 32 25 25 21 20 17
86 72 93 118 134 150 170 141 141 139 148 154 162 159 155 136 127 125 130 131 131 126 119 110 111 113 102 101 103 108 98 87 107 117 108 98 89 81 76 66 55 55 52 40 53 58 64 69 76 79 71 59 47 31 7 319 260 318 312 328 15 20 347 290 245 1 64 29 16 7 11 10 9 357 347 357 1 30 29 43 31 21 20 17 15
95 101 81 97 123 159 163 157 159 171 181 176 158 147 139 132 127 121 120 118 119 117 109 106 102 100 103 108 113 109 107 104 97 104 107 106 95 95 89 80 71 68 65 59 56 66 68 66 67 65 59 52 45 38 27 16 16 7 9 61 44 23 15 28 32 27 40 26 18 8 1 12 5 355 329 336 0 31 26 37 28 21 15 14 12
135 141 150 150 158 160 160 164 174 187 142 148 142 140 140 135 127 121 118 115 114 111 108 104 102 99 100 106 108 107 97 95 97 102 115 109 94 95 95 83 72 63 54 62 61 60 63 61 59 56 53 47 43 42 37 30 27 12 11 53 33 20 42 31 27 32 42 14 15 358 330 7 359 351 332 330 352 24 32 30 20 14 12 15 10
156 150 145 154 167 170 173 177 178 140 142 158 146 145 142 140 138 130 128 124 119 114 110 101 102 102 102 102 104 106 108 105 101 103 110 103 96 98 92 88 73 63 48 26 56 59 57 58 52 50 47 46 44 45 43 40 37 31 39 44 352 357 54 36 23 55 47 22 14 349 332 16 335 359 339 320 323 76 36 32 24 7 7 11 6
138 141 155 164 169 168 158 143 154 162 161 164 162 155 147 142 136 131 130 124 121 120 116 107 95 96 93 98 105 106 101 101 96 95 95 97 95 90 94 88 82 70 49 49 56 56 41 42 34 37 38 36 38 37 38 41 42 42 41 42 34 63 64 51 31 18 25 9 353 346 354 13 352 9 354 344 359 63 41 18 25 10 6 4 1